Time,TemperatureF,DewpointF,PressureIn,WindDirection,WindDirectionDegrees,WindSpeedMPH,WindSpeedGustMPH,Humidity,HourlyPrecipIn,Conditions,Clouds,dailyrainin,SoftwareType,DateUTC
2013-02-06 00:00:00,50.0,50.0,30.03,SSW,202,0.0,0.0,100,0.00,,,0.00,Rainwise IP-100,2013-02-06 05:00:00,
2013-02-06 00:05:00,50.0,50.0,30.04,SSW,202,0.0,0.0,99,0.00,,,0.00,Rainwise IP-100,2013-02-06 05:05:00,
2013-02-06 00:10:00,50.0,49.0,30.04,SSW,202,0.0,0.0,98,0.00,,,0.00,Rainwise IP-100,2013-02-06 05:10:00,
2013-02-06 00:15:00,50.0,49.0,30.04,SSW,202,0.0,0.0,98,0.00,,,0.00,Rainwise IP-100,2013-02-06 05:15:00,
2013-02-06 00:20:00,50.0,49.0,30.03,SSW,202,0.0,0.0,98,0.00,,,0.00,Rainwise IP-100,2013-02-06 05:20:00,
2013-02-06 00:25:00,50.0,49.0,30.03,SW,225,0.0,0.0,98,0.00,,,0.00,Rainwise IP-100,2013-02-06 05:25:00,
2013-02-06 00:30:00,50.0,49.0,30.03,SW,225,0.0,0.0,97,0.00,,,0.00,Rainwise IP-100,2013-02-06 05:30:00,
2013-02-06 00:35:00,50.0,49.0,30.04,SW,225,0.0,0.0,97,0.00,,,0.00,Rainwise IP-100,2013-02-06 05:35:00,
2013-02-06 00:40:00,51.0,50.5,30.04,SW,225,0.0,0.0,97,0.00,,,0.00,Rainwise IP-100,2013-02-06 05:40:00,
2013-02-06 00:45:00,51.0,50.5,30.04,SW,225,0.0,2.0,97,0.00,,,0.00,Rainwise IP-100,2013-02-06 05:45:00,
2013-02-06 00:50:00,51.0,50.0,30.04,SW,225,0.0,2.0,96,0.00,,,0.00,Rainwise IP-100,2013-02-06 05:50:00,
2013-02-06 00:55:00,51.0,50.0,30.04,SW,225,0.0,0.0,95,0.00,,,0.00,Rainwise IP-100,2013-02-06 05:55:00,
2013-02-06 01:00:00,51.0,50.0,30.04,SSW,202,0.0,2.0,95,0.00,,,0.00,Rainwise IP-100,2013-02-06 06:00:00,
2013-02-06 01:05:00,51.0,50.0,30.04,SSW,202,0.0,0.0,95,0.00,,,0.00,Rainwise IP-100,2013-02-06 06:05:00,
2013-02-06 01:10:00,51.0,49.0,30.04,SW,225,0.0,4.0,93,0.00,,,0.00,Rainwise IP-100,2013-02-06 06:10:00,
2013-02-06 01:15:00,52.0,50.0,30.04,SW,225,0.0,5.0,92,0.00,,,0.00,Rainwise IP-100,2013-02-06 06:15:00,
2013-02-06 01:20:00,52.0,50.0,30.04,SW,225,1.0,2.0,92,0.00,,,0.00,Rainwise IP-100,2013-02-06 06:20:00,
2013-02-06 01:25:00,52.0,50.0,30.04,SW,225,1.0,3.0,92,0.00,,,0.00,Rainwise IP-100,2013-02-06 06:25:00,
2013-02-06 01:30:00,52.0,50.0,30.05,SW,225,0.0,2.0,92,0.00,,,0.00,Rainwise IP-100,2013-02-06 06:30:00,
2013-02-06 01:35:00,52.0,50.0,30.04,SSW,202,0.0,2.0,92,0.00,,,0.00,Rainwise IP-100,2013-02-06 06:35:00,
2013-02-06 01:40:00,52.0,50.0,30.04,SW,225,0.0,1.0,92,0.00,,,0.00,Rainwise IP-100,2013-02-06 06:40:00,
2013-02-06 01:45:00,51.0,49.0,30.04,SW,225,0.0,0.0,92,0.00,,,0.00,Rainwise IP-100,2013-02-06 06:45:00,
2013-02-06 01:50:00,51.0,49.0,30.04,SW,225,0.0,0.0,92,0.00,,,0.00,Rainwise IP-100,2013-02-06 06:50:00,
2013-02-06 01:55:00,51.0,49.0,30.04,SW,225,0.0,0.0,92,0.00,,,0.00,Rainwise IP-100,2013-02-06 06:55:00,
2013-02-06 02:00:00,51.0,49.0,30.04,SW,225,0.0,0.0,92,0.00,,,0.00,Rainwise IP-100,2013-02-06 07:00:00,
2013-02-06 02:05:00,50.0,47.5,30.04,SW,225,0.0,0.0,92,0.00,,,0.00,Rainwise IP-100,2013-02-06 07:05:00,
2013-02-06 02:10:00,50.0,47.5,30.04,SW,225,0.0,0.0,92,0.00,,,0.00,Rainwise IP-100,2013-02-06 07:10:00,
2013-02-06 02:15:00,50.0,47.5,30.04,SW,225,0.0,0.0,93,0.00,,,0.00,Rainwise IP-100,2013-02-06 07:15:00,
2013-02-06 02:20:00,49.0,47.5,30.04,SW,225,0.0,0.0,94,0.00,,,0.00,Rainwise IP-100,2013-02-06 07:20:00,
2013-02-06 02:25:00,49.0,47.5,30.04,SW,225,0.0,0.0,95,0.00,,,0.00,Rainwise IP-100,2013-02-06 07:25:00,
2013-02-06 02:30:00,49.0,47.5,30.04,SW,225,0.0,0.0,95,0.00,,,0.00,Rainwise IP-100,2013-02-06 07:30:00,
2013-02-06 02:35:00,49.0,47.5,30.04,SW,225,0.0,0.0,95,0.00,,,0.00,Rainwise IP-100,2013-02-06 07:35:00,
2013-02-06 02:40:00,49.0,48.0,30.04,SW,225,0.0,0.0,96,0.00,,,0.00,Rainwise IP-100,2013-02-06 07:40:00,
2013-02-06 02:45:00,49.0,48.0,30.04,SW,225,0.0,0.0,97,0.00,,,0.00,Rainwise IP-100,2013-02-06 07:45:00,
2013-02-06 02:50:00,49.0,48.0,30.04,SW,225,0.0,0.0,96,0.00,,,0.00,Rainwise IP-100,2013-02-06 07:50:00,
2013-02-06 02:55:00,48.0,47.5,30.04,SW,225,0.0,0.0,97,0.00,,,0.00,Rainwise IP-100,2013-02-06 07:55:00,
2013-02-06 03:00:00,49.0,48.0,30.04,SW,225,0.0,0.0,97,0.00,,,0.00,Rainwise IP-100,2013-02-06 08:00:00,
2013-02-06 03:05:00,49.0,48.0,30.04,SW,225,0.0,0.0,96,0.00,,,0.00,Rainwise IP-100,2013-02-06 08:05:00,
2013-02-06 03:10:00,50.0,49.0,30.04,SW,225,0.0,1.0,97,0.00,,,0.00,Rainwise IP-100,2013-02-06 08:10:00,
2013-02-06 03:15:00,51.0,50.5,30.04,SSW,202,1.0,1.0,97,0.00,,,0.00,Rainwise IP-100,2013-02-06 08:15:00,
2013-02-06 03:20:00,51.0,50.0,30.04,SSW,202,0.0,2.0,96,0.00,,,0.00,Rainwise IP-100,2013-02-06 08:20:00,
2013-02-06 03:25:00,51.0,50.0,30.04,SSW,202,0.0,0.0,95,0.00,,,0.00,Rainwise IP-100,2013-02-06 08:25:00,
2013-02-06 03:30:00,51.0,50.0,30.04,SW,225,0.0,2.0,96,0.00,,,0.00,Rainwise IP-100,2013-02-06 08:30:00,
2013-02-06 03:35:00,52.0,50.5,30.04,SSW,202,2.0,5.0,95,0.00,,,0.00,Rainwise IP-100,2013-02-06 08:35:00,
2013-02-06 03:40:00,52.0,50.5,30.04,SW,225,1.0,5.0,95,0.00,,,0.00,Rainwise IP-100,2013-02-06 08:40:00,
2013-02-06 03:45:00,53.0,51.0,30.05,SSW,202,1.0,4.0,95,0.00,,,0.00,Rainwise IP-100,2013-02-06 08:45:00,
2013-02-06 03:50:00,53.0,51.0,30.05,SSW,202,0.0,3.0,95,0.00,,,0.00,Rainwise IP-100,2013-02-06 08:50:00,
2013-02-06 03:55:00,53.0,51.0,30.05,SW,225,0.0,3.0,95,0.00,,,0.00,Rainwise IP-100,2013-02-06 08:55:00,
2013-02-06 04:00:00,52.0,50.5,30.05,SW,225,0.0,0.0,95,0.00,,,0.00,Rainwise IP-100,2013-02-06 09:00:00,
2013-02-06 04:05:00,52.0,50.5,30.05,SW,225,0.0,0.0,95,0.00,,,0.00,Rainwise IP-100,2013-02-06 09:05:00,
2013-02-06 04:10:00,52.0,50.5,30.05,SW,225,0.0,0.0,94,0.00,,,0.00,Rainwise IP-100,2013-02-06 09:10:00,
2013-02-06 04:15:00,51.0,50.0,30.05,SW,225,0.0,0.0,95,0.00,,,0.00,Rainwise IP-100,2013-02-06 09:15:00,
2013-02-06 04:20:00,51.0,50.0,30.05,SW,225,0.0,0.0,95,0.00,,,0.00,Rainwise IP-100,2013-02-06 09:20:00,
2013-02-06 04:25:00,51.0,50.5,30.05,SW,225,0.0,0.0,97,0.00,,,0.00,Rainwise IP-100,2013-02-06 09:25:00,
2013-02-06 04:30:00,50.0,49.0,30.05,SW,225,0.0,0.0,98,0.00,,,0.00,Rainwise IP-100,2013-02-06 09:30:00,
2013-02-06 04:35:00,50.0,49.0,30.05,SW,225,0.0,0.0,98,0.00,,,0.00,Rainwise IP-100,2013-02-06 09:35:00,
2013-02-06 04:40:00,50.0,50.0,30.05,SW,225,0.0,0.0,99,0.00,,,0.00,Rainwise IP-100,2013-02-06 09:40:00,
2013-02-06 04:45:00,50.0,50.0,30.05,SW,225,0.0,0.0,100,0.00,,,0.00,Rainwise IP-100,2013-02-06 09:45:00,
2013-02-06 04:50:00,50.0,50.0,30.05,SW,225,0.0,0.0,100,0.00,,,0.00,Rainwise IP-100,2013-02-06 09:50:00,
2013-02-06 04:53:00,49.0,48.0,30.05,SW,225,0.0,0.0,98,0.00,,,0.00,Rainwise IP-100,2013-02-06 09:53:00,
2013-02-06 04:58:00,49.0,48.0,30.05,SW,225,0.0,0.0,98,0.00,,,0.00,Rainwise IP-100,2013-02-06 09:58:00,
2013-02-06 05:03:00,49.0,48.0,30.05,SW,225,0.0,0.0,98,0.00,,,0.00,Rainwise IP-100,2013-02-06 10:03:00,
2013-02-06 05:08:00,49.0,49.0,30.05,SW,225,0.0,0.0,99,0.00,,,0.00,Rainwise IP-100,2013-02-06 10:08:00,
2013-02-06 05:13:00,49.0,49.0,30.06,SW,225,0.0,0.0,99,0.00,,,0.00,Rainwise IP-100,2013-02-06 10:13:00,
2013-02-06 05:18:00,49.0,49.0,30.06,SW,225,0.0,0.0,99,0.00,,,0.00,Rainwise IP-100,2013-02-06 10:18:00,
2013-02-06 05:23:00,48.0,48.0,30.06,SW,225,0.0,0.0,99,0.00,,,0.00,Rainwise IP-100,2013-02-06 10:23:00,
2013-02-06 05:28:00,48.0,48.0,30.06,SW,225,0.0,0.0,100,0.00,,,0.00,Rainwise IP-100,2013-02-06 10:28:00,
2013-02-06 05:33:00,48.0,48.0,30.06,SW,225,0.0,0.0,100,0.00,,,0.00,Rainwise IP-100,2013-02-06 10:33:00,
2013-02-06 05:38:00,48.0,48.0,30.06,SW,225,0.0,0.0,100,0.00,,,0.00,Rainwise IP-100,2013-02-06 10:38:00,
2013-02-06 05:43:00,48.0,48.0,30.06,SW,225,0.0,0.0,100,0.00,,,0.00,Rainwise IP-100,2013-02-06 10:43:00,
2013-02-06 05:48:00,48.0,48.0,30.06,SW,225,0.0,0.0,100,0.00,,,0.00,Rainwise IP-100,2013-02-06 10:48:00,
2013-02-06 05:53:00,47.0,47.0,30.06,SW,225,0.0,0.0,100,0.00,,,0.00,Rainwise IP-100,2013-02-06 10:53:00,
2013-02-06 05:58:00,47.0,47.0,30.07,SW,225,0.0,0.0,100,0.00,,,0.00,Rainwise IP-100,2013-02-06 10:58:00,
2013-02-06 06:03:00,47.0,47.0,30.07,SW,225,0.0,0.0,100,0.00,,,0.00,Rainwise IP-100,2013-02-06 11:03:00,
2013-02-06 06:08:00,47.0,47.0,30.07,SW,225,0.0,0.0,100,0.00,,,0.00,Rainwise IP-100,2013-02-06 11:08:00,
2013-02-06 06:13:00,47.0,47.0,30.06,SW,225,0.0,0.0,100,0.00,,,0.00,Rainwise IP-100,2013-02-06 11:13:00,
2013-02-06 06:18:00,47.0,47.0,30.07,SW,225,0.0,0.0,100,0.00,,,0.00,Rainwise IP-100,2013-02-06 11:18:00,
2013-02-06 06:23:00,47.0,47.0,30.07,SW,225,0.0,0.0,100,0.00,,,0.00,Rainwise IP-100,2013-02-06 11:23:00,
2013-02-06 06:28:00,47.0,47.0,30.07,SW,225,0.0,0.0,100,0.00,,,0.00,Rainwise IP-100,2013-02-06 11:28:00,
2013-02-06 06:33:00,47.0,47.0,30.08,SW,225,0.0,0.0,100,0.00,,,0.00,Rainwise IP-100,2013-02-06 11:33:00,
2013-02-06 06:38:00,47.0,47.0,30.08,SW,225,0.0,0.0,100,0.00,,,0.00,Rainwise IP-100,2013-02-06 11:38:00,
2013-02-06 06:43:00,47.0,47.0,30.08,SW,225,0.0,0.0,100,0.00,,,0.00,Rainwise IP-100,2013-02-06 11:43:00,
2013-02-06 06:48:00,47.0,47.0,30.08,SW,225,0.0,0.0,100,0.00,,,0.00,Rainwise IP-100,2013-02-06 11:48:00,
2013-02-06 06:53:00,47.0,47.0,30.08,SW,225,0.0,0.0,100,0.00,,,0.00,Rainwise IP-100,2013-02-06 11:53:00,
2013-02-06 06:58:00,48.0,48.0,30.08,SW,225,0.0,0.0,100,0.00,,,0.00,Rainwise IP-100,2013-02-06 11:58:00,
2013-02-06 07:03:00,48.0,48.0,30.08,SW,225,0.0,0.0,100,0.00,,,0.00,Rainwise IP-100,2013-02-06 12:03:00,
2013-02-06 07:08:00,47.0,47.0,30.09,SW,225,0.0,0.0,100,0.00,,,0.00,Rainwise IP-100,2013-02-06 12:08:00,
2013-02-06 07:13:00,47.0,47.0,30.09,SW,225,0.0,0.0,100,0.00,,,0.00,Rainwise IP-100,2013-02-06 12:13:00,
2013-02-06 07:18:00,47.0,47.0,30.09,SW,225,0.0,0.0,100,0.00,,,0.00,Rainwise IP-100,2013-02-06 12:18:00,
2013-02-06 07:23:00,46.0,46.0,30.09,SW,225,0.0,0.0,100,0.00,,,0.00,Rainwise IP-100,2013-02-06 12:23:00,
2013-02-06 07:28:00,47.0,47.0,30.10,SW,225,0.0,0.0,100,0.00,,,0.00,Rainwise IP-100,2013-02-06 12:28:00,
2013-02-06 07:33:00,47.0,47.0,30.09,SW,225,0.0,0.0,100,0.00,,,0.00,Rainwise IP-100,2013-02-06 12:33:00,
2013-02-06 07:38:00,47.0,47.0,30.10,SW,225,0.0,0.0,100,0.00,,,0.00,Rainwise IP-100,2013-02-06 12:38:00,
2013-02-06 07:43:00,47.0,47.0,30.10,SW,225,0.0,0.0,100,0.00,,,0.00,Rainwise IP-100,2013-02-06 12:43:00,
2013-02-06 07:48:00,47.0,47.0,30.10,SW,225,0.0,0.0,100,0.00,,,0.00,Rainwise IP-100,2013-02-06 12:48:00,
2013-02-06 07:53:00,48.0,48.0,30.10,SW,225,0.0,0.0,100,0.00,,,0.00,Rainwise IP-100,2013-02-06 12:53:00,
2013-02-06 07:58:00,48.0,48.0,30.11,WSW,247,0.0,0.0,100,0.00,,,0.00,Rainwise IP-100,2013-02-06 12:58:00,
2013-02-06 08:03:00,48.0,48.0,30.12,WSW,247,0.0,0.0,100,0.00,,,0.00,Rainwise IP-100,2013-02-06 13:03:00,
2013-02-06 08:08:00,48.0,48.0,30.12,WSW,247,0.0,0.0,100,0.00,,,0.00,Rainwise IP-100,2013-02-06 13:08:00,
2013-02-06 08:13:00,48.0,48.0,30.12,WSW,247,0.0,0.0,100,0.00,,,0.00,Rainwise IP-100,2013-02-06 13:13:00,
2013-02-06 08:18:00,49.0,49.0,30.13,WSW,247,0.0,0.0,100,0.00,,,0.00,Rainwise IP-100,2013-02-06 13:18:00,
2013-02-06 08:23:00,49.0,49.0,30.13,SW,225,0.0,0.0,100,0.00,,,0.00,Rainwise IP-100,2013-02-06 13:23:00,
2013-02-06 08:28:00,50.0,50.0,30.13,WSW,247,0.0,2.0,100,0.00,,,0.00,Rainwise IP-100,2013-02-06 13:28:00,
2013-02-06 08:33:00,50.0,50.0,30.14,SW,225,0.0,3.0,100,0.00,,,0.00,Rainwise IP-100,2013-02-06 13:33:00,
2013-02-06 08:38:00,50.0,50.0,30.14,SSW,202,0.0,3.0,100,0.00,,,0.00,Rainwise IP-100,2013-02-06 13:38:00,
2013-02-06 08:43:00,51.0,51.0,30.14,SW,225,2.0,2.0,100,0.00,,,0.00,Rainwise IP-100,2013-02-06 13:43:00,
2013-02-06 08:48:00,51.0,51.0,30.14,WSW,247,0.0,3.0,100,0.00,,,0.00,Rainwise IP-100,2013-02-06 13:48:00,
2013-02-06 08:53:00,52.0,52.0,30.15,West,270,0.0,3.0,100,0.00,,,0.00,Rainwise IP-100,2013-02-06 13:53:00,
2013-02-06 08:58:00,52.0,52.0,30.15,WNW,292,0.0,2.0,100,0.00,,,0.00,Rainwise IP-100,2013-02-06 13:58:00,
2013-02-06 09:03:00,53.0,53.0,30.16,WNW,292,4.0,4.0,100,0.00,,,0.00,Rainwise IP-100,2013-02-06 14:03:00,
2013-02-06 09:08:00,53.0,53.0,30.15,SW,225,0.0,6.0,99,0.00,,,0.00,Rainwise IP-100,2013-02-06 14:08:00,
2013-02-06 09:13:00,54.0,53.5,30.15,WNW,292,0.0,3.0,98,0.00,,,0.00,Rainwise IP-100,2013-02-06 14:13:00,
2013-02-06 09:18:00,54.0,53.0,30.16,West,270,5.0,5.0,96,0.00,,,0.00,Rainwise IP-100,2013-02-06 14:18:00,
2013-02-06 09:23:00,55.0,53.5,30.16,NE,45,0.0,6.0,93,0.00,,,0.00,Rainwise IP-100,2013-02-06 14:23:00,
2013-02-06 09:28:00,56.0,53.5,30.16,NW,315,0.0,3.0,90,0.00,,,0.00,Rainwise IP-100,2013-02-06 14:28:00,
2013-02-06 09:33:00,57.0,55.0,30.16,SW,225,0.0,2.0,93,0.00,,,0.00,Rainwise IP-100,2013-02-06 14:33:00,
2013-02-06 09:38:00,58.0,54.0,30.17,West,270,0.0,2.0,86,0.00,,,0.00,Rainwise IP-100,2013-02-06 14:38:00,
2013-02-06 09:43:00,59.0,56.0,30.18,West,270,2.0,3.0,89,0.00,,,0.00,Rainwise IP-100,2013-02-06 14:43:00,
2013-02-06 09:48:00,60.0,57.0,30.19,West,270,0.0,3.0,90,0.00,,,0.00,Rainwise IP-100,2013-02-06 14:48:00,
2013-02-06 09:53:00,61.0,54.5,30.19,NW,315,0.0,4.0,80,0.00,,,0.00,Rainwise IP-100,2013-02-06 14:53:00,
2013-02-06 09:58:00,62.0,54.5,30.20,WNW,292,0.0,2.0,77,0.00,,,0.00,Rainwise IP-100,2013-02-06 14:58:00,
2013-02-06 10:03:00,63.0,54.5,30.20,NW,315,0.0,2.0,74,0.00,,,0.00,Rainwise IP-100,2013-02-06 15:03:00,
2013-02-06 10:08:00,64.0,53.5,30.20,NNW,337,0.0,2.0,69,0.00,,,0.00,Rainwise IP-100,2013-02-06 15:08:00,
2013-02-06 10:13:00,65.0,54.0,30.21,WNW,292,0.0,4.0,67,0.00,,,0.00,Rainwise IP-100,2013-02-06 15:13:00,
2013-02-06 10:18:00,65.0,54.0,30.21,WSW,247,2.0,4.0,67,0.00,,,0.00,Rainwise IP-100,2013-02-06 15:18:00,
2013-02-06 10:23:00,64.0,52.0,30.21,North,360,0.0,6.0,65,0.00,,,0.00,Rainwise IP-100,2013-02-06 15:23:00,
2013-02-06 10:28:00,65.0,52.0,30.22,NW,315,0.0,3.0,63,0.00,,,0.00,Rainwise IP-100,2013-02-06 15:28:00,
2013-02-06 10:33:00,66.0,53.0,30.22,NE,45,0.0,4.0,62,0.00,,,0.00,Rainwise IP-100,2013-02-06 15:33:00,
2013-02-06 10:38:00,66.0,51.0,30.22,NW,315,0.0,6.0,59,0.00,,,0.00,Rainwise IP-100,2013-02-06 15:38:00,
2013-02-06 10:43:00,66.0,50.0,30.22,SW,225,0.0,5.0,57,0.00,,,0.00,Rainwise IP-100,2013-02-06 15:43:00,
2013-02-06 10:48:00,66.0,50.5,30.22,SSW,202,0.0,5.0,58,0.00,,,0.00,Rainwise IP-100,2013-02-06 15:48:00,
2013-02-06 10:53:00,67.0,51.0,30.22,NW,315,0.0,3.0,57,0.00,,,0.00,Rainwise IP-100,2013-02-06 15:53:00,
2013-02-06 10:58:00,68.0,50.5,30.22,SW,225,0.0,4.0,54,0.00,,,0.00,Rainwise IP-100,2013-02-06 15:58:00,
2013-02-06 11:03:00,69.0,52.0,30.23,SW,225,0.0,1.0,55,0.00,,,0.00,Rainwise IP-100,2013-02-06 16:03:00,
2013-02-06 11:08:00,69.0,51.0,30.23,SW,225,0.0,4.0,53,0.00,,,0.00,Rainwise IP-100,2013-02-06 16:08:00,
2013-02-06 11:13:00,70.0,51.0,30.23,NW,315,0.0,0.0,51,0.00,,,0.00,Rainwise IP-100,2013-02-06 16:13:00,
2013-02-06 11:18:00,70.0,51.0,30.23,NNW,337,0.0,3.0,52,0.00,,,0.00,Rainwise IP-100,2013-02-06 16:18:00,
2013-02-06 11:23:00,70.0,51.0,30.23,North,360,0.0,2.0,51,0.00,,,0.00,Rainwise IP-100,2013-02-06 16:23:00,
2013-02-06 11:28:00,70.0,50.5,30.23,NW,315,3.0,3.0,50,0.00,,,0.00,Rainwise IP-100,2013-02-06 16:28:00,
2013-02-06 11:33:00,70.0,50.0,30.23,NNW,337,0.0,4.0,49,0.00,,,0.00,Rainwise IP-100,2013-02-06 16:33:00,
2013-02-06 11:38:00,71.0,50.0,30.23,North,360,0.0,2.0,48,0.00,,,0.00,Rainwise IP-100,2013-02-06 16:38:00,
2013-02-06 11:43:00,71.0,50.0,30.23,SW,225,0.0,2.0,47,0.00,,,0.00,Rainwise IP-100,2013-02-06 16:43:00,
2013-02-06 11:48:00,71.0,50.0,30.23,West,270,0.0,4.0,48,0.00,,,0.00,Rainwise IP-100,2013-02-06 16:48:00,
2013-02-06 11:53:00,70.0,50.0,30.23,SW,225,0.0,6.0,48,0.00,,,0.00,Rainwise IP-100,2013-02-06 16:53:00,
2013-02-06 11:58:00,71.0,49.0,30.23,SSW,202,0.0,3.0,46,0.00,,,0.00,Rainwise IP-100,2013-02-06 16:58:00,
2013-02-06 12:03:00,71.0,50.0,30.22,SW,225,0.0,5.0,48,0.00,,,0.00,Rainwise IP-100,2013-02-06 17:03:00,
2013-02-06 12:08:00,70.0,47.5,30.22,SW,225,3.0,7.0,45,0.00,,,0.00,Rainwise IP-100,2013-02-06 17:08:00,
2013-02-06 12:13:00,70.0,48.0,30.22,WSW,247,2.0,7.0,46,0.00,,,0.00,Rainwise IP-100,2013-02-06 17:13:00,
2013-02-06 12:18:00,70.0,47.5,30.22,SW,225,4.0,7.0,45,0.00,,,0.00,Rainwise IP-100,2013-02-06 17:18:00,
2013-02-06 12:23:00,70.0,47.5,30.22,West,270,0.0,7.0,45,0.00,,,0.00,Rainwise IP-100,2013-02-06 17:23:00,
2013-02-06 12:28:00,71.0,48.0,30.21,WNW,292,0.0,3.0,45,0.00,,,0.00,Rainwise IP-100,2013-02-06 17:28:00,
2013-02-06 12:33:00,70.0,47.5,30.21,West,270,0.0,4.0,45,0.00,,,0.00,Rainwise IP-100,2013-02-06 17:33:00,
2013-02-06 12:38:00,71.0,48.0,30.21,WNW,292,0.0,0.0,45,0.00,,,0.00,Rainwise IP-100,2013-02-06 17:38:00,
2013-02-06 12:43:00,72.0,47.5,30.21,NW,315,1.0,6.0,42,0.00,,,0.00,Rainwise IP-100,2013-02-06 17:43:00,
2013-02-06 12:48:00,72.0,47.5,30.20,North,360,0.0,4.0,42,0.00,,,0.00,Rainwise IP-100,2013-02-06 17:48:00,
2013-02-06 12:53:00,72.0,47.0,30.20,North,360,1.0,6.0,41,0.00,,,0.00,Rainwise IP-100,2013-02-06 17:53:00,
2013-02-06 12:58:00,71.0,46.0,30.20,NW,315,2.0,7.0,41,0.00,,,0.00,Rainwise IP-100,2013-02-06 17:58:00,
2013-02-06 13:03:00,70.0,47.0,30.19,SW,225,0.0,6.0,43,0.00,,,0.00,Rainwise IP-100,2013-02-06 18:03:00,
2013-02-06 13:08:00,70.0,47.0,30.19,SW,225,3.0,7.0,43,0.00,,,0.00,Rainwise IP-100,2013-02-06 18:08:00,
2013-02-06 13:13:00,69.0,46.0,30.18,WSW,247,0.0,6.0,43,0.00,,,0.00,Rainwise IP-100,2013-02-06 18:13:00,
2013-02-06 13:18:00,70.0,47.5,30.18,SW,225,3.0,3.0,45,0.00,,,0.00,Rainwise IP-100,2013-02-06 18:18:00,
2013-02-06 13:23:00,69.0,46.0,30.18,SSW,202,0.0,8.0,44,0.00,,,0.00,Rainwise IP-100,2013-02-06 18:23:00,
2013-02-06 13:28:00,69.0,47.0,30.18,SW,225,0.0,5.0,45,0.00,,,0.00,Rainwise IP-100,2013-02-06 18:28:00,
2013-02-06 13:33:00,70.0,47.5,30.17,South,180,0.0,6.0,45,0.00,,,0.00,Rainwise IP-100,2013-02-06 18:33:00,
2013-02-06 13:38:00,70.0,52.0,30.17,SSW,202,0.0,0.0,53,0.00,,,0.00,Rainwise IP-100,2013-02-06 18:38:00,
2013-02-06 13:43:00,69.0,52.0,30.17,SSE,157,1.0,0.0,55,0.00,,,0.00,Rainwise IP-100,2013-02-06 18:43:00,
2013-02-06 13:48:00,68.0,53.0,30.17,SSE,157,0.0,3.0,58,0.00,,,0.00,Rainwise IP-100,2013-02-06 18:48:00,
2013-02-06 13:53:00,68.0,54.0,30.16,East,90,0.0,4.0,61,0.00,,,0.00,Rainwise IP-100,2013-02-06 18:53:00,
2013-02-06 13:58:00,67.0,53.5,30.16,South,180,0.0,1.0,61,0.00,,,0.00,Rainwise IP-100,2013-02-06 18:58:00,
2013-02-06 14:03:00,67.0,54.0,30.16,SE,135,0.0,3.0,62,0.00,,,0.00,Rainwise IP-100,2013-02-06 19:03:00,
2013-02-06 14:08:00,67.0,54.0,30.16,SSE,157,0.0,2.0,62,0.00,,,0.00,Rainwise IP-100,2013-02-06 19:08:00,
2013-02-06 14:13:00,67.0,54.0,30.16,South,180,0.0,2.0,62,0.00,,,0.00,Rainwise IP-100,2013-02-06 19:13:00,
2013-02-06 14:18:00,67.0,54.0,30.16,SE,135,0.0,3.0,62,0.00,,,0.00,Rainwise IP-100,2013-02-06 19:18:00,
2013-02-06 14:23:00,67.0,53.5,30.16,East,90,0.0,1.0,61,0.00,,,0.00,Rainwise IP-100,2013-02-06 19:23:00,
2013-02-06 14:28:00,68.0,54.0,30.16,South,180,0.0,2.0,61,0.00,,,0.00,Rainwise IP-100,2013-02-06 19:28:00,
2013-02-06 14:33:00,68.0,54.0,30.16,South,180,0.0,4.0,61,0.00,,,0.00,Rainwise IP-100,2013-02-06 19:33:00,
2013-02-06 14:38:00,67.0,53.0,30.16,SSE,157,0.0,0.0,60,0.00,,,0.00,Rainwise IP-100,2013-02-06 19:38:00,
2013-02-06 14:43:00,67.0,53.0,30.16,SSE,157,0.0,0.0,60,0.00,,,0.00,Rainwise IP-100,2013-02-06 19:43:00,
2013-02-06 14:48:00,66.0,51.0,30.16,SSW,202,2.0,3.0,60,0.00,,,0.00,Rainwise IP-100,2013-02-06 19:48:00,
2013-02-06 14:53:00,67.0,53.0,30.16,South,180,0.0,3.0,60,0.00,,,0.00,Rainwise IP-100,2013-02-06 19:53:00,
2013-02-06 14:58:00,67.0,52.0,30.16,South,180,0.0,4.0,58,0.00,,,0.00,Rainwise IP-100,2013-02-06 19:58:00,
2013-02-06 15:03:00,67.0,53.0,30.16,South,180,2.0,3.0,59,0.00,,,0.00,Rainwise IP-100,2013-02-06 20:03:00,
2013-02-06 15:08:00,67.0,53.0,30.16,SE,135,3.0,6.0,59,0.00,,,0.00,Rainwise IP-100,2013-02-06 20:08:00,
2013-02-06 15:13:00,66.0,51.0,30.16,SSE,157,0.0,3.0,60,0.00,,,0.00,Rainwise IP-100,2013-02-06 20:13:00,
2013-02-06 15:18:00,66.0,51.0,30.16,East,90,0.0,3.0,59,0.00,,,0.00,Rainwise IP-100,2013-02-06 20:18:00,
2013-02-06 15:23:00,66.0,51.0,30.16,SSE,157,0.0,4.0,59,0.00,,,0.00,Rainwise IP-100,2013-02-06 20:23:00,
2013-02-06 15:28:00,66.0,51.0,30.16,ESE,112,0.0,2.0,59,0.00,,,0.00,Rainwise IP-100,2013-02-06 20:28:00,
2013-02-06 15:33:00,67.0,53.0,30.16,West,270,0.0,2.0,59,0.00,,,0.00,Rainwise IP-100,2013-02-06 20:33:00,
2013-02-06 15:38:00,67.0,53.0,30.16,East,90,0.0,1.0,59,0.00,,,0.00,Rainwise IP-100,2013-02-06 20:38:00,
2013-02-06 15:44:00,66.0,51.0,30.16,ENE,67,0.0,0.0,60,0.00,,,0.00,Rainwise IP-100,2013-02-06 20:44:00,
2013-02-06 15:49:00,65.0,50.5,30.16,East,90,0.0,3.0,60,0.00,,,0.00,Rainwise IP-100,2013-02-06 20:49:00,
2013-02-06 15:54:00,65.0,51.0,30.16,ESE,112,0.0,0.0,62,0.00,,,0.00,Rainwise IP-100,2013-02-06 20:54:00,
2013-02-06 15:59:00,65.0,51.0,30.16,ENE,67,0.0,0.0,62,0.00,,,0.00,Rainwise IP-100,2013-02-06 20:59:00,
2013-02-06 16:04:00,65.0,51.0,30.16,ESE,112,0.0,0.0,62,0.00,,,0.00,Rainwise IP-100,2013-02-06 21:04:00,
2013-02-06 16:09:00,65.0,51.0,30.16,East,90,0.0,3.0,62,0.00,,,0.00,Rainwise IP-100,2013-02-06 21:09:00,
2013-02-06 16:14:00,65.0,52.0,30.16,East,90,0.0,2.0,63,0.00,,,0.00,Rainwise IP-100,2013-02-06 21:14:00,
2013-02-06 16:19:00,64.0,51.0,30.15,NE,45,0.0,3.0,63,0.00,,,0.00,Rainwise IP-100,2013-02-06 21:19:00,
2013-02-06 16:24:00,64.0,51.0,30.15,NNE,22,0.0,3.0,64,0.00,,,0.00,Rainwise IP-100,2013-02-06 21:24:00,
2013-02-06 16:29:00,64.0,51.0,30.16,SE,135,0.0,4.0,64,0.00,,,0.00,Rainwise IP-100,2013-02-06 21:29:00,
2013-02-06 16:34:00,63.0,51.0,30.15,East,90,0.0,3.0,66,0.00,,,0.00,Rainwise IP-100,2013-02-06 21:34:00,
2013-02-06 16:39:00,63.0,52.0,30.16,NE,45,1.0,0.0,67,0.00,,,0.00,Rainwise IP-100,2013-02-06 21:39:00,
2013-02-06 16:44:00,63.0,52.0,30.16,NE,45,0.0,2.0,68,0.00,,,0.00,Rainwise IP-100,2013-02-06 21:44:00,
2013-02-06 16:49:00,62.0,52.0,30.16,ENE,67,0.0,2.0,70,0.00,,,0.00,Rainwise IP-100,2013-02-06 21:49:00,
2013-02-06 16:54:00,62.0,53.0,30.16,North,360,0.0,3.0,71,0.00,,,0.00,Rainwise IP-100,2013-02-06 21:54:00,
2013-02-06 16:59:00,62.0,53.0,30.16,East,90,0.0,3.0,72,0.00,,,0.00,Rainwise IP-100,2013-02-06 21:59:00,
2013-02-06 17:04:00,62.0,53.0,30.16,ENE,67,0.0,2.0,72,0.00,,,0.00,Rainwise IP-100,2013-02-06 22:04:00,
2013-02-06 17:09:00,62.0,53.0,30.16,ENE,67,0.0,1.0,72,0.00,,,0.00,Rainwise IP-100,2013-02-06 22:09:00,
2013-02-06 17:14:00,62.0,53.0,30.16,ENE,67,0.0,0.0,72,0.00,,,0.00,Rainwise IP-100,2013-02-06 22:14:00,
2013-02-06 17:19:00,61.0,52.0,30.16,North,360,0.0,0.0,72,0.00,,,0.00,Rainwise IP-100,2013-02-06 22:19:00,
2013-02-06 17:24:00,61.0,52.0,30.16,North,360,0.0,0.0,72,0.00,,,0.00,Rainwise IP-100,2013-02-06 22:24:00,
2013-02-06 17:29:00,61.0,52.0,30.16,North,360,0.0,0.0,73,0.00,,,0.00,Rainwise IP-100,2013-02-06 22:29:00,
2013-02-06 17:34:00,61.0,53.5,30.16,NE,45,0.0,0.0,75,0.00,,,0.00,Rainwise IP-100,2013-02-06 22:34:00,
2013-02-06 17:39:00,60.0,53.0,30.16,NE,45,0.0,0.0,77,0.00,,,0.00,Rainwise IP-100,2013-02-06 22:39:00,
2013-02-06 17:44:00,60.0,53.0,30.16,NE,45,0.0,0.0,77,0.00,,,0.00,Rainwise IP-100,2013-02-06 22:44:00,
2013-02-06 17:49:00,60.0,53.5,30.16,NE,45,0.0,0.0,79,0.00,,,0.00,Rainwise IP-100,2013-02-06 22:49:00,
2013-02-06 17:54:00,59.0,53.0,30.16,NE,45,0.0,0.0,79,0.00,,,0.00,Rainwise IP-100,2013-02-06 22:54:00,
2013-02-06 17:59:00,59.0,53.5,30.16,NE,45,0.0,0.0,81,0.00,,,0.00,Rainwise IP-100,2013-02-06 22:59:00,
2013-02-06 18:04:00,58.0,52.0,30.16,NE,45,0.0,0.0,80,0.00,,,0.00,Rainwise IP-100,2013-02-06 23:04:00,
2013-02-06 18:09:00,57.0,52.0,30.16,NE,45,0.0,0.0,84,0.00,,,0.00,Rainwise IP-100,2013-02-06 23:09:00,
2013-02-06 18:14:00,57.0,52.0,30.16,NE,45,0.0,0.0,84,0.00,,,0.00,Rainwise IP-100,2013-02-06 23:14:00,
2013-02-06 18:19:00,56.0,53.0,30.16,NE,45,0.0,0.0,89,0.00,,,0.00,Rainwise IP-100,2013-02-06 23:19:00,
2013-02-06 18:24:00,56.0,54.0,30.16,NE,45,0.0,0.0,93,0.00,,,0.00,Rainwise IP-100,2013-02-06 23:24:00,
2013-02-06 18:29:00,55.0,53.5,30.16,NE,45,0.0,0.0,94,0.00,,,0.00,Rainwise IP-100,2013-02-06 23:29:00,
2013-02-06 18:34:00,55.0,53.5,30.16,NE,45,0.0,0.0,93,0.00,,,0.00,Rainwise IP-100,2013-02-06 23:34:00,
2013-02-06 18:39:00,55.0,53.5,30.16,NE,45,0.0,0.0,93,0.00,,,0.00,Rainwise IP-100,2013-02-06 23:39:00,
2013-02-06 18:44:00,55.0,54.5,30.16,NE,45,0.0,0.0,98,0.00,,,0.00,Rainwise IP-100,2013-02-06 23:44:00,
2013-02-06 18:49:00,54.0,53.5,30.16,NE,45,0.0,0.0,97,0.00,,,0.00,Rainwise IP-100,2013-02-06 23:49:00,
2013-02-06 18:54:00,54.0,53.5,30.16,NE,45,0.0,0.0,97,0.00,,,0.00,Rainwise IP-100,2013-02-06 23:54:00,
2013-02-06 18:59:00,54.0,53.5,30.16,NE,45,0.0,0.0,98,0.00,,,0.00,Rainwise IP-100,2013-02-06 23:59:00,
2013-02-06 19:04:00,54.0,54.0,30.16,NE,45,0.0,0.0,99,0.00,,,0.00,Rainwise IP-100,2013-02-07 00:04:00,
2013-02-06 19:09:00,53.0,52.0,30.16,NE,45,0.0,0.0,97,0.00,,,0.00,Rainwise IP-100,2013-02-07 00:09:00,
2013-02-06 19:14:00,53.0,52.0,30.17,NE,45,0.0,0.0,97,0.00,,,0.00,Rainwise IP-100,2013-02-07 00:14:00,
2013-02-06 19:19:00,53.0,52.0,30.16,NE,45,0.0,0.0,98,0.00,,,0.00,Rainwise IP-100,2013-02-07 00:19:00,
2013-02-06 19:24:00,53.0,53.0,30.17,NE,45,0.0,0.0,100,0.00,,,0.00,Rainwise IP-100,2013-02-07 00:24:00,
2013-02-06 19:29:00,53.0,53.0,30.16,NE,45,0.0,0.0,100,0.00,,,0.00,Rainwise IP-100,2013-02-07 00:29:00,
2013-02-06 19:34:00,53.0,53.0,30.17,NE,45,0.0,0.0,99,0.00,,,0.00,Rainwise IP-100,2013-02-07 00:34:00,
2013-02-06 19:39:00,53.0,53.0,30.17,NE,45,0.0,0.0,99,0.00,,,0.00,Rainwise IP-100,2013-02-07 00:39:00,
2013-02-06 19:44:00,52.0,52.0,30.17,NE,45,0.0,0.0,99,0.00,,,0.00,Rainwise IP-100,2013-02-07 00:44:00,
2013-02-06 19:49:00,52.0,52.0,30.17,NE,45,0.0,0.0,99,0.00,,,0.00,Rainwise IP-100,2013-02-07 00:49:00,
2013-02-06 19:54:00,52.0,52.0,30.17,NE,45,0.0,0.0,100,0.00,,,0.00,Rainwise IP-100,2013-02-07 00:54:00,
2013-02-06 19:59:00,51.0,51.0,30.17,NE,45,0.0,0.0,100,0.00,,,0.00,Rainwise IP-100,2013-02-07 00:59:00,
2013-02-06 20:04:00,51.0,51.0,30.17,NE,45,0.0,0.0,100,0.00,,,0.00,Rainwise IP-100,2013-02-07 01:04:00,
2013-02-06 20:09:00,51.0,51.0,30.17,NE,45,0.0,0.0,100,0.00,,,0.00,Rainwise IP-100,2013-02-07 01:09:00,
2013-02-06 20:14:00,51.0,51.0,30.17,NE,45,0.0,0.0,100,0.00,,,0.00,Rainwise IP-100,2013-02-07 01:14:00,
2013-02-06 20:19:00,51.0,51.0,30.17,NE,45,0.0,0.0,100,0.00,,,0.00,Rainwise IP-100,2013-02-07 01:19:00,
2013-02-06 20:24:00,51.0,51.0,30.17,NE,45,0.0,0.0,100,0.00,,,0.00,Rainwise IP-100,2013-02-07 01:24:00,
2013-02-06 20:29:00,51.0,51.0,30.16,NE,45,0.0,0.0,100,0.00,,,0.00,Rainwise IP-100,2013-02-07 01:29:00,
2013-02-06 20:34:00,50.0,50.0,30.17,NE,45,0.0,0.0,100,0.00,,,0.00,Rainwise IP-100,2013-02-07 01:34:00,
2013-02-06 20:39:00,50.0,50.0,30.17,NE,45,0.0,0.0,100,0.00,,,0.00,Rainwise IP-100,2013-02-07 01:39:00,
2013-02-06 20:44:00,50.0,50.0,30.17,NE,45,0.0,0.0,100,0.00,,,0.00,Rainwise IP-100,2013-02-07 01:44:00,
2013-02-06 20:49:00,49.0,49.0,30.17,NE,45,0.0,0.0,100,0.00,,,0.00,Rainwise IP-100,2013-02-07 01:49:00,
2013-02-06 20:54:00,49.0,49.0,30.17,NE,45,0.0,0.0,100,0.00,,,0.00,Rainwise IP-100,2013-02-07 01:54:00,
2013-02-06 20:59:00,49.0,49.0,30.16,NE,45,0.0,0.0,100,0.00,,,0.00,Rainwise IP-100,2013-02-07 01:59:00,
2013-02-06 21:04:00,49.0,49.0,30.16,NE,45,0.0,0.0,100,0.00,,,0.00,Rainwise IP-100,2013-02-07 02:04:00,
2013-02-06 21:09:00,49.0,49.0,30.16,NE,45,0.0,0.0,100,0.00,,,0.00,Rainwise IP-100,2013-02-07 02:09:00,
2013-02-06 21:14:00,49.0,49.0,30.16,NE,45,0.0,0.0,100,0.00,,,0.00,Rainwise IP-100,2013-02-07 02:14:00,
2013-02-06 21:19:00,49.0,49.0,30.16,NE,45,0.0,0.0,100,0.00,,,0.00,Rainwise IP-100,2013-02-07 02:19:00,
2013-02-06 21:24:00,49.0,49.0,30.16,NE,45,0.0,0.0,100,0.00,,,0.00,Rainwise IP-100,2013-02-07 02:24:00,
2013-02-06 21:29:00,49.0,49.0,30.16,NE,45,0.0,0.0,100,0.00,,,0.00,Rainwise IP-100,2013-02-07 02:29:00,
2013-02-06 21:34:00,49.0,49.0,30.15,NE,45,0.0,0.0,100,0.00,,,0.00,Rainwise IP-100,2013-02-07 02:34:00,
2013-02-06 21:39:00,49.0,49.0,30.15,NE,45,0.0,0.0,100,0.00,,,0.00,Rainwise IP-100,2013-02-07 02:39:00,
2013-02-06 21:44:00,49.0,49.0,30.15,NE,45,0.0,0.0,100,0.00,,,0.00,Rainwise IP-100,2013-02-07 02:44:00,
2013-02-06 21:49:00,49.0,49.0,30.16,NE,45,0.0,0.0,100,0.00,,,0.00,Rainwise IP-100,2013-02-07 02:49:00,
2013-02-06 21:54:00,49.0,49.0,30.16,NE,45,0.0,0.0,100,0.00,,,0.00,Rainwise IP-100,2013-02-07 02:54:00,
2013-02-06 21:59:00,49.0,49.0,30.16,NE,45,0.0,0.0,100,0.00,,,0.00,Rainwise IP-100,2013-02-07 02:59:00,
2013-02-06 22:04:00,49.0,49.0,30.17,NE,45,0.0,0.0,100,0.00,,,0.00,Rainwise IP-100,2013-02-07 03:04:00,
2013-02-06 22:09:00,48.0,48.0,30.18,NE,45,0.0,0.0,100,0.00,,,0.00,Rainwise IP-100,2013-02-07 03:09:00,
2013-02-06 22:14:00,48.0,48.0,30.18,NE,45,0.0,0.0,100,0.00,,,0.00,Rainwise IP-100,2013-02-07 03:14:00,
2013-02-06 22:19:00,48.0,48.0,30.18,NE,45,0.0,0.0,100,0.00,,,0.00,Rainwise IP-100,2013-02-07 03:19:00,
2013-02-06 22:24:00,48.0,48.0,30.18,NE,45,0.0,0.0,100,0.00,,,0.00,Rainwise IP-100,2013-02-07 03:24:00,
2013-02-06 22:29:00,48.0,48.0,30.18,NE,45,0.0,0.0,100,0.00,,,0.00,Rainwise IP-100,2013-02-07 03:29:00,
2013-02-06 22:34:00,48.0,48.0,30.18,NE,45,0.0,0.0,100,0.00,,,0.00,Rainwise IP-100,2013-02-07 03:34:00,
2013-02-06 22:39:00,48.0,48.0,30.18,NE,45,0.0,0.0,100,0.00,,,0.00,Rainwise IP-100,2013-02-07 03:39:00,
2013-02-06 22:44:00,48.0,48.0,30.18,NE,45,0.0,0.0,100,0.00,,,0.00,Rainwise IP-100,2013-02-07 03:44:00,
2013-02-06 22:49:00,47.0,47.0,30.18,NE,45,0.0,0.0,100,0.00,,,0.00,Rainwise IP-100,2013-02-07 03:49:00,
2013-02-06 22:54:00,47.0,47.0,30.18,NE,45,0.0,0.0,100,0.00,,,0.00,Rainwise IP-100,2013-02-07 03:54:00,
2013-02-06 22:59:00,47.0,47.0,30.18,NE,45,0.0,0.0,100,0.00,,,0.00,Rainwise IP-100,2013-02-07 03:59:00,
2013-02-06 23:04:00,47.0,47.0,30.18,NE,45,0.0,0.0,100,0.00,,,0.00,Rainwise IP-100,2013-02-07 04:04:00,
2013-02-06 23:09:00,47.0,47.0,30.18,NE,45,0.0,0.0,100,0.00,,,0.00,Rainwise IP-100,2013-02-07 04:09:00,
2013-02-06 23:14:00,47.0,47.0,30.17,NE,45,0.0,0.0,100,0.00,,,0.00,Rainwise IP-100,2013-02-07 04:14:00,
2013-02-06 23:19:00,46.0,46.0,30.17,NE,45,0.0,0.0,100,0.00,,,0.00,Rainwise IP-100,2013-02-07 04:19:00,
2013-02-06 23:24:00,46.0,46.0,30.17,NE,45,0.0,0.0,100,0.00,,,0.00,Rainwise IP-100,2013-02-07 04:24:00,
2013-02-06 23:29:00,46.0,46.0,30.17,NE,45,0.0,0.0,100,0.00,,,0.00,Rainwise IP-100,2013-02-07 04:29:00,
2013-02-06 23:34:00,46.0,46.0,30.17,NE,45,0.0,0.0,100,0.00,,,0.00,Rainwise IP-100,2013-02-07 04:34:00,
2013-02-06 23:39:00,46.0,46.0,30.17,NE,45,0.0,0.0,100,0.00,,,0.00,Rainwise IP-100,2013-02-07 04:39:00,
2013-02-06 23:44:00,45.0,45.0,30.17,NE,45,0.0,0.0,100,0.00,,,0.00,Rainwise IP-100,2013-02-07 04:44:00,
2013-02-06 23:49:00,45.0,45.0,30.16,NE,45,0.0,0.0,100,0.00,,,0.00,Rainwise IP-100,2013-02-07 04:49:00,
2013-02-06 23:54:00,45.0,45.0,30.17,NE,45,0.0,0.0,100,0.00,,,0.00,Rainwise IP-100,2013-02-07 04:54:00,
2013-02-06 23:59:00,45.0,45.0,30.16,NE,45,0.0,0.0,100,0.00,,,0.00,Rainwise IP-100,2013-02-07 04:59:00,